Hourly Data Report for July 26, 2004

TORONTO CITY
ONTARIO

43°40'00.000" N
79°24'00.000" W
112.50 m
6158355
71508
XTO

Download Data

Hourly Data (July 2004)
Hourly Data Report for July 26, 2004
TIME
LST
Temp Definition
°C
Dew Point Definition
°C
Rel Hum Definition
%
Precip. Amount Definition
mm

Wind Dir Definition
10's deg

Wind Spd Definition
km/h
Visibility Definition
km
Stn Press Definition
kPa
Hmdx Definition


Wind Chill Definition


Weather Definition


00:00 18.2 12.4 69   LegendMM LegendMM LegendMM 101.01     LegendNANA
01:00 17.7 12.8 73   LegendMM LegendMM LegendMM 100.95     LegendNANA
02:00 17.1 12.3 73   LegendMM LegendMM LegendMM 100.92     LegendNANA
03:00 16.7 11.5 71   LegendMM LegendMM LegendMM 100.88     LegendNANA
04:00 16.5 10.2 66   LegendMM LegendMM LegendMM 100.85     LegendNANA
05:00 16.5 10.2 66   LegendMM LegendMM LegendMM 100.84     LegendNANA
06:00 16.7 10.8 68   LegendMM LegendMM LegendMM 100.89     LegendNANA
07:00 17.4 11.5 68   LegendMM LegendMM LegendMM 100.87     LegendNANA
08:00 19.4 12.0 62   LegendMM LegendMM LegendMM 100.90     LegendNANA
09:00 21.3 11.2 53   LegendMM LegendMM LegendMM 100.85     LegendNANA
10:00 21.0 10.9 52   LegendMM LegendMM LegendMM 100.83     LegendNANA
11:00 21.8 11.8 53   LegendMM LegendMM LegendMM 100.79     LegendNANA
12:00 21.4 12.2 56   LegendMM LegendMM LegendMM 100.80     LegendNANA
13:00 21.9 12.1 54   LegendMM LegendMM LegendMM 100.75     LegendNANA
14:00 21.5 11.0 51   LegendMM LegendMM LegendMM 100.71     LegendNANA
15:00 21.4 12.6 57   LegendMM LegendMM LegendMM 100.67     LegendNANA
16:00 20.4 11.8 58   LegendMM LegendMM LegendMM 100.62     LegendNANA
17:00 19.8 12.1 61   LegendMM LegendMM LegendMM 100.61     LegendNANA
18:00 20.0 9.7 51   LegendMM LegendMM LegendMM 100.56     LegendNANA
19:00 20.3 10.6 54   LegendMM LegendMM LegendMM 100.53     LegendNANA
20:00 20.1 12.0 60   LegendMM LegendMM LegendMM 100.50     LegendNANA
21:00 20.2 11.5 57   LegendMM LegendMM LegendMM 100.49     LegendNANA
22:00 20.2 11.8 58   LegendMM LegendMM LegendMM 100.49     LegendNANA
23:00 20.0 13.1 64   LegendMM LegendMM LegendMM 100.44     LegendNANA

Notes on Data Quality.

Legend

  • E = Estimated
  • M = Missing
  • NA = Not Available*
  • [empty] = Indicates an unobserved value
Date modified: